STARLINK-38086, 69998

Orbit data source: Space-Track

STARLINK-38086, 69998 is a payload satellite owned by SpaceX/Seattle (US) in SSO that was launched on Sat, 11 Jul 2026 UTC via an FALCON 9 launch vehicle from the Air Force Western Test Range (AFWTR). Payload-class satellites include a variety of spacecraft equipped with specific instruments for various scientific and technological missions. These include communications satellites like Starlink; space stations such as the ISS; scientific satellites like the Hubble; Earth observation satellites from companies like Planet Labs, Umbra, and HawkEye 360; GPS; miniature CubeSats for education and research; and military/defense satellites.

Not visible in the next 10 days
Identifier
69998, 2026-159Z
Orbit
SSO
Country
Flag of USUS
Related business
Manufacturer
SpaceX/Seattle
Mission
Operational spacecraft
Bus & Motor
STARLINK V2MO, Unknown motor
Mass
575 kg wet, ~530 kg dry
Launch date (UTC)
2026-07-11 (1 month ago)
Launch vehicle
FALCON 9
Launch site
Air Force Western Test Range (AFWTR)
Object type
Payload
Rocket body
Debris
Shape & HBR
BOX + PAN, 17.7 m
Radar Cross Section
Large (>1 m²)

Expand to show TLE details & history
Last TLE update: 1 day ago

TLE from 1 day ago
0 STARLINK-38086
1 69998U 26159Z   26234.82753643  .00175592  00000-0  11489-2 0  9993
2 69998  97.2845  75.5398 0001955 103.9882 256.1600 15.75293772  7955
Epoch: 2026-08-22T19:51Z
TLE epoch observation values (Epoch: 2026-08-22T19:51:39.147Z)
Latitude
-0.0001°
Longitude
166.49435°
Altitude
347.278 km
Speed
7.7 km/s
True Right ascension
05h 02m 09s
True Declination
0° 00' 00"
Sunlit
Object was in daylight at epoch
Visualization orbit readout
Latitude
Unknown
Longitude
Unknown
Altitude
Unknown
Speed
Unknown
Apparent Right ascension
Unknown
Apparent Declination
Unknown
Sunlit
N/A
Visualization observer readout
Local Sidereal Time
22:41:49
Azimuth
Unknown
Elevation
Unknown
Doppler factor
Unknown
Orbital elements
Apogee altitude
341.996 km
Perigee altitude
339.369 km
Semi-major axis
6,718.82 km
Eccentricity
0.0002
Inclination
97.2845°
RAAN
75.5398°
Arg. of periapsis
103.9882°
True anomaly
256.13825°
Mean anomaly
256.16°
Eccentric anomaly
256.14912°
Mean motion
3.94098 °/min
Orbital period
91.35 mins
BSTAR
0.0011489
Loading maneuver chart data...
Computing Atmospheric mass density...
Loading historical data...
Loading historical data...
Loading historical data...
Loading historical data...
Loading historical data...
Loading historical data...
Loading historical data...

Documentation

Showing up to 5 results
|